Regional Weather Roundup
Issued by NWS

Home | Current Version | Previous Version | Graphics & Text | Print | Product List | Glossary On
Versions: 1 2 3 4 5 6 7 8 9 10 11 12 13 14 15 16 17 18 19 20 21 22 23 24 25 26 27 28 29 30 31 32 33 34 35 36 37 38 39 40 41 42 43 44 45 46 47 48 49 50
000
ASUS45 KBOU 230507
RWRCO

WEATHER ROUNDUP FOR COLORADO
NATIONAL WEATHER SERVICE DENVER/BOULDER CO
1100 PM MDT FRI MAY 22 2015

NOTE: "FAIR" INDICATES FEW OR NO CLOUDS BELOW 12000 FEET WITH NO
SIGNIFICANT WEATHER AND/OR OBSTRUCTIONS TO VISIBILITY.

COZ001>005-013-030-031-230600-
...NORTHWEST COLORADO...

CITY           SKY/WX    TMP DP  RH WIND       PRES   REMARKS
CRAIG          LGT RAIN  47  41  80 SW7G20    30.05R
HAYDEN         CLOUDY    45  36  70 SE5       30.05R
MEEKER         CLOUDY    45  39  79 MISG      30.04S
MOUNT WERNER   NOT AVBL
STEAMBOAT SPGS CLOUDY    42  37  84 CALM      30.06R
WALDEN         PTCLDY    37  32  81 S7        30.07F
$$

COZ006>008-011-230600-
...WEST CENTRAL VALLEYS...

CITY           SKY/WX    TMP DP  RH WIND       PRES   REMARKS
GRAND JUNCTION CLOUDY    51  45  79 CALM      29.97R
MONTROSE       MOCLDY    51  38  60 SE13      30.00R
EAGLE          CLOUDY    45  43  93 E5        30.06F
RIFLE          CLOUDY    48  42  80 S7        30.02R
DELTA          CLOUDY    53  45  74 MISG      29.97F
NUCLA          MOCLDY    46  36  66 SW3       30.01R
$$

COZ017>023-064>068-230600-
...SOUTHWEST COLORADO...

CITY           SKY/WX    TMP DP  RH WIND       PRES   REMARKS
DURANGO        CLOUDY    49  39  68 NW7       30.00R
CORTEZ         PTCLDY    53  32  44 VRB7G17   30.00R
PAGOSA SPRINGS CLOUDY    44  37  78 NE7       30.06F
TELLURIDE      TSTM      38  35  89 E9G17     30.14R
WOLF CREEK PAS NOT AVBL
$$

COZ009-010-012-014-032>034-037-058>063-230600-
...CENTRAL COLORADO...

CITY           SKY/WX    TMP DP  RH WIND       PRES   REMARKS
ASPEN          MOCLDY    43  37  79 SE6       30.06S
BUENA VISTA    CLOUDY    46  34  62 CALM      30.09S
COPPER MTN     MOCLDY    34  27  75 S10G20    30.24R WCI  26
BERTHOUD PASS  HAZE      27  19  74 SE9       30.26R VSB<1/4 WCI  17
COTTONWOOD PAS CLOUDY    43  30  61 CALM      30.17R
GUNNISON       CLOUDY    39  32  75 SW13G20   30.17R
KREMMLING      RAIN      41  37  87 E5        30.12R
LEADVILLE      CLOUDY    34  33  96 N5        30.15S WCI  30
MONARCH PASS   CLOUDY    32  28  86 SW23      30.33R WCI  19
SALIDA         CLOUDY    53  34  48 S15G21    30.15R
SUNLIGHT       MOCLDY    34  32  93 CALM      30.19R
WILKERSON PASS CLOUDY    34  30  86 MISG      30.24S
$$

COZ069>075-230600-
...SAN LUIS VALLEY/SANGRE DE CRISTO MOUNTAINS...

CITY           SKY/WX    TMP DP  RH WIND       PRES   REMARKS
ALAMOSA        LGT RAIN  50  35  56 SW17G32   30.08R
LA VETA PASS   LGT RAIN N/A N/A N/A MISG      30.20S
SAGUACHE       CLOUDY    43  36  75 NW5       30.11F
$$

COZ035-036-038>040-230600-
...NORTHERN COLORADO FRONT RANGE...

CITY           SKY/WX    TMP DP  RH WIND       PRES   REMARKS
DENVER INTL AP CLOUDY    49  47  93 NE3       30.06S
DMNS CITY PARK   N/A     48  47  99 SE6       30.05S
AURORA         MOCLDY    46  46 100 NE2       30.06F
FRONT RANGE AP NOT AVBL
ERIE MUNI ARPT CLOUDY    49  47  95 CALM      30.06F
BOULDER MUN AP RAIN      48  48 100 CALM      30.06S
CENTENNIAL     CLOUDY    47  46  97 CALM      30.06S
BROOMFIELD     NOT AVBL
FORT COLLINS   CLOUDY    48  45  87 SE12      30.07S
LONGMONT       CLOUDY    52  50  92 CALM      30.07F
$$

COZ041-046-047-076>085-087-088-230600-
...PIKES PEAK/PALMER DIVIDE AND SOUTHERN FOOTHILLS...

CITY           SKY/WX    TMP DP  RH WIND       PRES   REMARKS
COLO. SPRINGS  PTCLDY    49  44  83 N15       30.05R
A. F. ACADEMY  CLOUDY    48  46  91 N10       30.06R
ELLICOTT       NOT AVBL
FALCON         MOCLDY    45  43  95 N12       30.08R
FORT CARSON    PTCLDY    50  45  84 N16       30.02R
LIMON          PTCLDY    49  47  93 NE13      30.02R
MONUMENT HILL  NOT AVBL
TRINIDAD       PTCLDY    56  44  64 S16       30.02R
$$

COZ042>045-048>051-090-091-230600-
...NORTHEAST COLORADO...

CITY           SKY/WX    TMP DP  RH WIND       PRES   REMARKS
GREELEY ARPT   CLOUDY    48  46  93 SE8       30.07R
AKRON          FOG       50  50 100 E10       30.04S VSB 1/4
BURLINGTON     CLOUDY    53  52  96 SE25G35   30.00R FOG
WRAY           LGT RAIN N/A N/A N/A SE10      30.05S
STERLING       CLOUDY    46  46 100 NE7       30.04S FOG
HOLYOKE        NOT AVBL
FORT MORGAN    FOG       48  47  95 E12       30.06R VSB 3/4
$$

COZ086-089-092>099-230600-
...SOUTHEAST COLORADO...

CITY           SKY/WX    TMP DP  RH WIND       PRES   REMARKS
PUEBLO         CLEAR     55  48  77 N17       29.96R
LA JUNTA       CLEAR     61  51  70 S8        29.92R
LAMAR          NOT AVBL
SPRINGFIELD      N/A     54  52  93 S14       30.01S
$$


USA.gov is the U.S. government's official web portal to all federal, state and local government web resources and services.